EW7893 Weather Reports


Display with metric or nautical units.
time (UTC)temp
F
wind
direction
speed
MPH
gust
MPH
rain 1hr
in
rain 24hr
in
rain mn
in
humidity
%
barometer
mb
20260510061517 48 137 0.0 0.0 0.00 0.18 0.01 92 1011.1
20260510060303 49 136 0.0 0.0 0.00 0.18 0.01 92 1011.2
20260510060021 48 136 0.0 0.0 0.00 0.18 0.01 92 1011.3
20260510054522 49 136 0.0 0.0 0.00 0.18 0.01 92 1011.3
20260510053042 49 136 0.0 0.0 0.00 0.18 0.01 92 1011.3
20260510051550 49 136 0.0 0.0 0.01 0.18 0.01 92 1011.3
20260510050003 49 136 0.0 0.0 0.01 0.18 0.01 92 1011.5
20260510044540 49 136 0.0 0.0 0.01 0.18 0.01 92 1011.6
20260510043036 49 136 0.0 0.0 0.01 0.18 0.01 91 1011.7
20260510041541 50 136 0.0 0.0 0.00 0.17 0.00 92 1011.6
20260510040306 50 136 0.0 0.0 0.00 0.17 0.00 91 1011.4
20260510040100 50 136 0.0 0.0 0.00 0.17 0.17 91 1011.4
20260510034517 50 136 0.0 0.0 0.00 0.17 0.17 91 1011.2
20260510033048 50 136 0.0 0.0 0.00 0.17 0.17 91 1011.2
20260510031541 51 136 0.0 0.0 0.00 0.17 0.17 91 1011.2
20260510030112 51 136 0.0 0.0 0.00 0.17 0.17 91 1011.1
20260510024506 51 136 0.0 0.0 0.00 0.17 0.17 90 1011.2
20260510023011 52 136 0.0 0.0 0.00 0.17 0.17 91 1011.2
20260510021525 52 136 0.0 0.0 0.00 0.17 0.17 90 1011.2
20260510020311 53 136 0.0 0.0 0.00 0.17 0.17 90 1011.1
20260510020035 52 136 0.0 0.0 0.00 0.17 0.17 90 1011.1
20260510014545 52 136 0.0 0.0 0.00 0.17 0.17 90 1011.1
20260510013058 52 136 0.0 0.0 0.00 0.17 0.17 89 1011.0
20260510011518 53 136 0.0 0.0 0.00 0.17 0.17 89 1011.1
20260510010027 53 136 0.0 0.0 0.00 0.17 0.17 89 1010.7
20260510004545 54 136 0.0 0.0 0.00 0.17 0.17 88 1010.6
20260510003102 54 136 0.0 0.0 0.00 0.17 0.17 88 1010.7
20260510001506 54 136 0.0 0.0 0.00 0.17 0.17 87 1010.6
20260510000304 55 136 0.0 0.0 0.00 0.17 0.17 86 1010.5
20260510000018 55 136 0.0 0.0 0.00 0.17 0.17 86 1010.5
20260509234550 55 136 0.0 1.0 0.00 0.17 0.17 85 1010.5
20260509233035 56 136 0.0 0.0 0.00 0.17 0.17 84 1010.2
20260509231549 57 136 0.0 2.0 0.02 0.17 0.17 84 1010.3
20260509230049 57 162 0.0 1.0 0.05 0.17 0.17 85 1010.3
20260509224555 56 17 0.0 2.0 0.06 0.17 0.17 84 1010.6
20260509223014 56 103 1.0 2.0 0.10 0.17 0.17 84 1010.8
20260509221533 56 128 0.0 2.0 0.08 0.15 0.15 83 1011.1
20260509220319 57 117 0.0 1.0 0.05 0.12 0.12 82 1011.3
20260509220037 57 117 0.0 1.0 0.05 0.12 0.12 81 1011.3
20260509214549 58 28 0.0 3.0 0.03 0.10 0.10 77 1011.2
20260509213003 58 341 0.0 4.0 0.00 0.07 0.07 76 1010.8
20260509211522 58 8 0.0 3.0 0.00 0.07 0.07 76 1011.0
20260509210040 58 302 0.0 3.0 0.00 0.07 0.07 80 1010.9
20260509204559 57 352 0.0 2.0 0.01 0.07 0.07 81 1010.9
20260509203018 58 81 0.0 5.0 0.01 0.07 0.07 81 1011.2
20260509201527 58 360 1.0 4.0 0.01 0.07 0.07 81 1011.1
20260509200322 59 327 0.0 1.0 0.01 0.07 0.07 81 1011.3
20260509200025 58 7 0.0 2.0 0.01 0.07 0.07 81 1011.2
20260509194545 59 81 0.0 3.0 0.00 0.06 0.06 79 1011.4
20260509193004 59 335 0.0 1.0 0.02 0.06 0.06 79 1011.2
20260509191523 59 110 0.0 2.0 0.06 0.06 0.06 80 1011.0
20260509190035 59 32 1.0 4.0 0.06 0.06 0.06 80 1010.7
20260509184559 59 320 1.0 6.0 0.06 0.06 0.06 80 1010.8
20260509183056 61 293 0.0 4.0 0.04 0.04 0.04 75 1011.8
20260509181509 63 163 0.0 5.0 0.00 0.00 0.00 67 1011.4
20260509180323 65 143 1.0 3.0 0.00 0.00 0.00 66 1011.0
20260509180014 64 105 0.0 3.0 0.00 0.00 0.00 65 1010.9
20260509174535 65 139 3.0 6.0 0.00 0.00 0.00 61 1010.7
20260509173055 66 162 3.0 9.0 0.00 0.00 0.00 60 1010.5
20260509171627 67 129 3.0 10.0 0.00 0.00 0.00 58 1010.7
20260509170005 67 86 1.0 4.0 0.00 0.00 0.00 61 1010.8
20260509164527 67 186 1.0 4.0 0.00 0.00 0.00 62 1010.9
20260509163048 66 279 0.0 3.0 0.00 0.00 0.00 66 1011.0
20260509161505 64 214 1.0 3.0 0.00 0.00 0.00 66 1011.4
20260509160316 63 142 2.0 5.0 0.00 0.00 0.00 67 1011.7
20260509160054 63 139 2.0 5.0 0.00 0.00 0.00 67 1011.7
20260509154601 63 145 1.0 4.0 0.00 0.00 0.00 66 1011.9
20260509153016 64 96 1.0 3.0 0.00 0.00 0.00 65 1012.0
20260509151524 64 245 1.0 5.0 0.00 0.00 0.00 65 1012.2
20260509150033 64 169 1.0 4.0 0.00 0.00 0.00 65 1012.1
20260509144617 64 178 1.0 7.0 0.00 0.00 0.00 65 1012.2
20260509143051 62 204 2.0 6.0 0.00 0.00 0.00 66 1012.2
20260509141518 61 146 1.0 6.0 0.00 0.00 0.00 68 1012.1
20260509140312 61 207 1.0 3.0 0.00 0.00 0.00 68 1012.2
20260509140015 60 221 0.0 7.0 0.00 0.00 0.00 69 1012.2
20260509134524 59 162 1.0 5.0 0.00 0.00 0.00 69 1012.3
20260509133047 59 195 2.0 6.0 0.00 0.00 0.00 69 1012.3
20260509131603 59 184 1.0 7.0 0.00 0.00 0.00 68 1012.4
20260509130015 58 181 2.0 5.0 0.00 0.00 0.00 70 1012.4
20260509124524 58 207 1.0 5.0 0.00 0.00 0.00 71 1012.7
20260509123042 57 198 1.0 4.0 0.00 0.00 0.00 70 1012.7
20260509121600 57 92 1.0 4.0 0.00 0.00 0.00 69 1012.7
20260509120305 57 188 2.0 4.0 0.00 0.00 0.00 69 1012.7
20260509120014 57 158 0.0 4.0 0.00 0.00 0.00 69 1012.7
20260509114516 56 155 0.0 4.0 0.00 0.00 0.00 70 1012.9
20260509113035 56 72 0.0 4.0 0.00 0.00 0.00 69 1012.7
20260509111555 56 186 1.0 4.0 0.00 0.00 0.00 69 1012.7
20260509110000 56 160 0.0 4.0 0.00 0.00 0.00 68 1012.8
20260509104535 56 113 0.0 3.0 0.00 0.00 0.00 68 1012.7
20260509103030 55 169 2.0 6.0 0.00 0.00 0.00 69 1012.4
20260509101542 55 210 1.0 3.0 0.00 0.00 0.00 69 1012.5
20260509100308 56 202 1.0 4.0 0.00 0.00 0.00 68 1012.4
20260509100055 55 136 0.0 5.0 0.00 0.00 0.00 68 1012.4
20260509094555 55 142 0.0 2.0 0.00 0.00 0.00 69 1012.4
20260509093014 55 217 0.0 0.0 0.00 0.00 0.00 69 1012.4
20260509091522 55 217 0.0 0.0 0.00 0.00 0.00 69 1012.3
20260509090019 55 214 0.0 0.0 0.00 0.00 0.00 69 1012.4
20260509084532 55 214 0.0 0.0 0.00 0.00 0.00 68 1012.4
20260509083046 55 214 0.0 1.0 0.00 0.00 0.00 68 1012.4
20260509081504 55 225 0.0 1.0 0.00 0.00 0.00 68 1012.6
20260509080316 55 138 0.0 1.0 0.00 0.00 0.00 69 1012.6
20260509080056 55 153 0.0 0.0 0.00 0.00 0.00 69 1012.6
20260509074602 55 160 0.0 0.0 0.00 0.00 0.00 68 1012.4
20260509073008 56 222 0.0 2.0 0.00 0.00 0.00 68 1012.6
20260509071529 55 110 0.0 2.0 0.00 0.00 0.00 68 1012.7
20260509070040 55 96 0.0 2.0 0.00 0.00 0.00 68 1012.6
20260509064548 55 101 0.0 1.0 0.00 0.00 0.00 68 1012.6
20260509063007 55 101 0.0 1.0 0.00 0.00 0.00 68 1012.7